www.pogodaiklimat.ru

Погода и климат >> Архив погоды >> Мадагаскар >> Toliara


ПОГОДА в Toliara

  • Прогноз погоды в Toliara
  • Монитор погоды в Toliara
  • Климат города

АРХИВ ПОГОДЫ в Toliara

Время (UTC), дата Ветер
(напр.,м/с)
 
Видим.   Явления Облачность Т
(С)
Тd
(С)
f
(%)
Тe
(С)
Тes
(С)
Комфортность P
(гПа)
Po
(гПа)
Тmin
(С)
Tmax
(С)
R
(мм)
R24
(мм)
S
(см)
09 10.12 З 7 40 км 1/1 600 м
[Cu med, cong Ci sp]
+31.5 +23.5 63 +43 +48 опасность
перегрева
1011.3 1010.4
12 10.12 З 7 40 км 1/1 600 м
[Cb cap Ci ing]
+30.6 +24.1 68 +42 +45 опасность
перегрева
1010.9 1010.0
15 10.12 ЮЗ 3 40 км 1/1 600 м
[Cb cap Ci ing]
+29.6 +22.6 66 +39 +39 очень
душно
1011.1 1010.2 +32.7
00 11.12 СВ 2 35 км 8/1 600 м
[Cu Sc Ci sp]
+24.6 +21.0 80 +31 +31 очень
душно
1010.9 1010.0
03 11.12 ЮВ 2 40 км 8/1 600 м
[Cu Sc Ci sp]
+25.9 +21.0 74 +32 +33 очень
душно
1012.0 1011.1
06 11.12 СЗ 3 40 км 8/1 600 м
[Cb cap Ci ing]
+32.5 +18.5 43 +37 +45 очень
душно
1011.5 1010.6 +24.5 +32.7
09 11.12 З 6 40 км 9/3 600 м
[Cb cap Ci ing]
+31.8 +22.4 58 +41 +46 опасность
перегрева
1010.4 1009.5
12 11.12 СЗ 9 40 км 9/1 600 м
[Cb cap Ci ing]
+30.8 +23.6 66 +42 +43 опасность
перегрева
1010.1 1009.2
15 11.12 СЗ 5 35 км 9/4 600 м
[Cb cap Ci ing]
+29.0 +24.4 76 +41 +41 опасность
перегрева
1010.3 1009.4 +33.4
03 12.12 С 3 40 км 8/1 600 м
[Cb cap Ci ing]
+27.5 +22.2 73 +36 +36 очень
душно
1011.6 1010.7
06 12.12 С 5 40 км 8/5 600 м
[Cb cap Ci ing]
+32.4 +22.9 57 +42 +45 опасность
перегрева
1012.2 1011.3 +26.1 +33.4
09 12.12 З 12 40 км 3/3 600 м
[Cu Sc Ci sp]
+31.9 +24.1 63 +44 +44 опасность
перегрева
1012.3 1011.4
12 12.12 СЗ 13 40 км 5/3 600 м
[Cb cap Ci ing]
+30.2 +24.4 71 +42 +42 опасность
перегрева
1012.0 1011.1
15 12.12 СЗ 4 40 км 8/6 600 м
[Cb cap Ci ing]
+29.0 +23.4 72 +39 +40 очень
душно
1012.7 1011.8
00 13.12 штиль 0 35 км 1/1 1200 м
[Sc Ci sp]
+24.7 +21.6 83 +32 +32 очень
душно
1014.6 1013.7
03 13.12 штиль 0 40 км 4/1 1200 м
[Sc Ci sp]
+24.9 +21.9 83 +32 +32 очень
душно
1015.4 1014.5
06 13.12 СЗ 4 40 км 8/1 600 м
[Cu Sc Ac trans Ci sp]
+29.4 +23.2 69 +39 +44 очень
душно
1015.8 1013.9 +23.9 +33.7
09 13.12 35 км н/о +29.4 +23.8 72 +40 +44 очень
душно
1015.8 1014.9
12 13.12 З 6 40 км 8/6 600 м
[Cb cap Ac trans Ci ing]
+29.6 +23.1 68 +40 +41 очень
душно
1014.9 1014.0
15 13.12 ЮЗ 4 40 км 9/8 600 м
[Cb cap Ac trans Ci ing]
+28.7 +23.8 75 +40 +40 очень
душно
1014.5 1013.8 +31.5
00 14.12 Ю 2 35 км 3/1 600 м
[Cu Sc Ac trans Ci sp]
+26.4 +21.5 74 +34 +34 очень
душно
1014.7 1013.8
03 14.12 Ю 5 40 км 3/1 600 м
[Cu Sc Ac trans Ci sp]
+26.2 +22.2 79 +34 +34 очень
душно
1015.9 1015.0
06 14.12 ЮЗ 6 40 км 1/1 600 м
[Cu Sc Ci sp]
+30.3 +23.0 65 +40 +44 очень
душно
1015.7 1014.8 +25.4 +31.5
09 14.12 ЮЗ 12 40 км 3/3 600 м
[Cb cap Ac trans Ci ing]
+30.7 +24.6 70 +43 +43 опасность
перегрева
1014.6 1013.7
12 14.12 ЮЗ 10 40 км 4/3 600 м
[Cb cap Ci ing]
+30.5 +24.2 69 +42 +43 опасность
перегрева
1012.5 1011.6
15 14.12 ЮЗ 7 35 км гроза без осадков 6/6 600 м
[Cb cap Ci ing]
+28.9 +25.0 80 +42 +42 опасность
перегрева
1012.9 1012.0 +32.4
00 15.12 В 1 35 км 1/1 1200 м
[Sc]
+24.7 +22.0 85 +32 +32 очень
душно
1013.5 1012.6
03 15.12 Ю 2 40 км 1/1 1200 м
[Sc]
+25.8 +21.7 78 +33 +33 очень
душно
1014.2 1013.3
06 15.12 В 2 40 км 1/1 600 м
[Cu Sc]
+34.4 +20.2 43 +40 +51 опасность
солнечного
удара
1014.3 1013.4 +24.4 +32.4
09 15.12 З 3 35 км гроза без осадков 5/5 600 м
[Cb cap Ci ing]
+33.1 +22.6 54 +43 +52 опасность
перегрева
1013.1 1012.2
12 15.12 штиль 0 35 км в посл. час гроза 8/8 600 м
[Cb cap Ci ing]
+31.3 +23.1 62 +42 +45 опасность
перегрева
1013.1 1012.2 7
15 15.12 З 2 40 км 8/8 600 м
[Cb cap Ac trans Ci ing]
+29.6 +24.2 73 +41 +41 опасность
перегрева
1013.3 1012.4 +37.2
00 16.12 штиль 0 30 км осадки на расстоянии 9/4 600 м
[Cu Sc Ac trans]
+26.0 +24.6 92 +37 +37 очень
душно
1013.0 1012.1
03 16.12 В 1 35 км осадки на расстоянии 8/3 600 м
[Cu Sc Ac trans]
+25.7 +23.8 89 +35 +35 очень
душно
1013.4 1012.5
06 16.12 З 3 40 км 9/4 600 м
[Cu Sc Ac trans]
+30.3 +23.9 69 +42 +45 опасность
перегрева
1014.0 1013.1 +25.5 +37.2 7
09 16.12 ЮЗ 4 35 км осадки на расстоянии 6/4 600 м
[Cb cap Ac trans Ci ing]
+31.4 +24.3 66 +44 +51 опасность
перегрева
1013.2 1012.3
12 16.12 ЮЗ 5 30 км гроза без осадков 9/4 600 м
[Cb cap Ac As Ci ing]
+31.4 +21.3 55 +39 +42 очень
душно
1012.2 1011.3
15 16.12 ЮВ 3 35 км осадки на расстоянии {гроза} 9/4 600 м
[Cb cap Ac trans Ci ing]
+29.5 +19.8 56 +36 +36 очень
душно
1013.6 1012.7 +34.7
03 17.12 штиль 0 40 км 6/3 600 м
[Cu Sc Ac trans]
+24.7 +20.3 77 +31 +31 очень
душно
1014.1 1013.2
06 17.12 СЗ 3 н/о н/о +32.0 +19.0 46 +37 +37 очень
душно
1013.4 1012.5 +24.2 +14.4

 

Местоположение метеостанции Toliara (Мадагаскар): широта -23.38 долгота 43.73 высота над уровнем моря 8 м.

В архиве по умолчанию представлена погода в Toliara за последнюю неделю. Архивные данные за месяц целиком и за предыдущие месяцы, начиная с января 2011 года, Вы можете получить, выбрав интересующий диапазон дат из раскрывающегося списка и нажав кнопку "Ввод!".


*Определитесь, кто Вы:
робот инопланетянин человек

Внимание! Время в таблицах - всемирное. Для получения местного времени необходимо прибавить поправку, которая в Toliara равна 3 ч.

Смотрите также архив погоды в соседних городах и на ближайших метеорологических станциях:

Погода в Morombe (Мадагаскар) (185 км)
Погода в Ranohira (Мадагаскар) (295 км)
Погода в Morondava (Мадагаскар) (350 км)
Погода в Europa Island (Реюньон) (372 км)
Погода в Taolagnaro (Мадагаскар) (375 км)
Погода в Fianarantsoa (Мадагаскар) (408 км)
Погода в Farafangana (Мадагаскар) (424 км)
Погода в Mananjary (Мадагаскар) (516 км)
Погода в Antsirabe (Мадагаскар) (526 км)
Погода в Maintirano (Мадагаскар) (594 км)

Пояснения к столбцам:

Ветер - указаны скорость ветра в м/с - средняя за 10 мин, порывы в срок и между сроками (в фигурных скобках) и направление, откуда дует ветер: С - северный, СВ - северо-восточный, В - восточный, ЮВ - юго-восточный, Ю - южный, ЮЗ - юго-западный, З - западный, СЗ - северо-западный.
Видимость - горизонтальная дальность видимости в метрах или километрах. При видимости от 1 до 10 км при отсутствии осадков обычно наблюдается дымка, при ухудшении видимости до 1 км и менее - туман. В сухую погоду видимость может ухудшаться дымом, пылью или мглою.
Явления - указаны атмосферные явления, наблюдавшиеся в срок или в последний час перед сроком; фигурными скобками обозначены явления, наблюдавшиеся между сроками (за 1-3 часа до срока); квадратными скобками обозначены град или гололедные отложения с указанием их диаметра в мм.
Облачность - указаны через наклонную черту общая и нижняя облачность в баллах и высота нижней границы облаков в метрах; квадратными скобками обозначены формы облаков: Ci - перистые, Cs - перисто-слоистые, Cc - перисто-кучевые, Ac - высококучевые, As - высокослоистые, Sc - слоисто-кучевые, Ns - слоисто-дождевые, Cu - кучевые, Cb - кучево-дождевые. Подробнее классификацию облаков см. в Атласе облаков (PDF).
T - Температура воздуха - температура, измеренная на высоте 2 м над землей.
Td - Температура точки росы - температура, при понижении до которой содержащийся в воздухе водяной пар достигнет насыщения.
f - Относительная влажность воздуха - влажноcть воздуха, измеренная на высоте 2 м над землей.
Te - Эффективная температура - температура, которую ощущает одетый по сезону человек в тени. Характеристика душности погоды. При расчете учитывается влияние влажности воздуха и скорости ветра на теплоощущения человека.
Tes - Эффективная температура на солнце - температура, которую ощущает человек, с поправкой на солнечный нагрев. Характеристика знойности погоды. Зависит от высоты солнца над горизонтом, облачности и скорости ветра. Ночью, в пасмурную погоду, а также при ветре 12 м/с и более поправка равна нулю.
P - Атмосферное давление - приведенное к уровню моря атмосферное давление.
Po - Атмосферное давление - измеренное на уровне метеостанции атмосферное давление.
Tmin - Минимальная температура - минимум температуры воздуха на высоте 2 м над землей.
Tmax - Максимальная температура - максимум температуры воздуха на высоте 2 м над землей.
R - Количество осадков - Количество выпавших осадков за период времени, мм. При наведении курсора мыши на число - период времени, за который выпало указанное количество осадков.
R24 - Количество осадков - Количество выпавших осадков за 24 часа, мм.
S - Снежный покров - Высота снежного покрова, см. При наведении курсора мыши на число - состояние снежного покрова и степень покрытия местности в баллах.